This demonstration page uses our WeatherBlox Daily Observations layout. Learn more.

39.29038, -76.61219

Hourly Observations for July 1, 2015

Temp ( °F °C ) Dew Point ( °F °C ) Humidity (%) Winds ( mph kmh ) Pressure ( in mb ) Visibility ( mi km ) Precip ( " mm )
12:54 am 00:54 Mostly Clear 77 25 66 19 69 69 undefined N/A 29.8 1009 N/A 0 0
1:54 am 01:54 undefined 70 21 66 19 88 88 undefined N/A 29.85 1011 N/A 0.2 5.08
2:54 am 02:54 Cloudy 68 20 66 19 94 94 undefined N/A 29.83 1010 N/A 0.16 4.064
3:54 am 03:54 undefined 68 20 64 18 88 88 undefined N/A 29.83 1010 N/A 0.02 0.508
4:54 am 04:54 undefined 68 20 64 18 88 88 undefined N/A 29.83 1010 N/A 0 0
5:54 am 05:54 undefined 68 20 64 18 88 88 undefined N/A 29.83 1010 N/A 0 0
6:54 am 06:54 Mostly Sunny 68 20 66 19 94 94 undefined N/A 29.85 1011 N/A 0 0
7:54 am 07:54 Mostly Cloudy 70 21 66 19 88 88 undefined N/A 29.85 1011 N/A 0 0
8:54 am 08:54 undefined 73 23 66 19 78 78 undefined N/A 29.88 1012 N/A 0 0
9:54 am 09:54 undefined 79 26 64 18 61 61 undefined N/A 29.85 1011 N/A 0 0
10:54 am 10:54 Mostly Cloudy 81 27 63 17 54 54 undefined N/A 29.85 1011 N/A 0 0
11:54 am 11:54 undefined 82 28 63 17 51 51 undefined N/A 29.88 1012 N/A 0 0
12:54 pm 12:54 undefined 84 29 63 17 48 48 undefined N/A 29.88 1012 N/A 0 0
1:54 pm 13:54 undefined 84 29 63 17 48 48 undefined N/A 29.85 1011 N/A 0 0
2:54 pm 14:54 Mostly Sunny 84 29 61 16 45 45 undefined N/A 29.83 1010 N/A 0 0
3:54 pm 15:54 Mostly Sunny 86 30 63 17 46 46 undefined N/A 29.83 1010 N/A 0 0
4:54 pm 16:54 Partly Cloudy 86 30 61 16 43 43 undefined N/A 29.83 1010 N/A 0 0
5:54 pm 17:54 Mostly Sunny 84 29 63 17 48 48 undefined N/A 29.8 1009 N/A 0 0
6:54 pm 18:54 undefined 84 29 63 17 48 48 undefined N/A 29.8 1009 N/A 0 0
7:54 pm 19:54 undefined 81 27 70 21 70 70 undefined N/A 29.8 1009 N/A 0 0
8:54 pm 20:54 undefined 81 27 59 15 48 48 undefined N/A 29.85 1011 N/A 0 0
9:54 pm 21:54 Mostly Clear 81 27 57 14 45 45 undefined N/A 29.88 1012 N/A 0 0
10:54 pm 22:54 Cloudy 79 26 57 14 48 48 undefined N/A 29.91 1013 N/A 0 0
11:54 pm 23:54 Mostly Cloudy 77 25 59 15 54 54 undefined N/A 29.91 1013 N/A 0 0

Powered by AerisWeather